Date Hour Ending, MW ,,,,,,,,,,,,,,,,,
11/01/2016 1:00,45,,,,,,,,,,,,,,,,,
11/01/2016 2:00,50,,,,,,,,,,,,,,,,,
11/01/2016 3:00,59,,,,,,,,,,,,,,,,,
11/01/2016 4:00,43,,,,,,,,,,,,,,,,,
11/01/2016 5:00,41,,,,,,,,,,,,,,,,,
11/01/2016 6:00,26,,,,,,,,,,,,,,,,,
11/01/2016 7:00,2,,,,,,,,,,,,,,,,,
11/01/2016 8:00,-3,,,,,,,,,,,,,,,,,
11/01/2016 9:00,-9,,,,,,,,,,,,,,,,,
11/01/2016 10:00,-4,,,,,,,,,,,,,,,,,
11/01/2016 11:00,5,,,,,,,,,,,,,,,,,
11/01/2016 12:00,-1,,,,,,,,,,,,,,,,,
11/01/2016 13:00,-59,,,,,,,,,,,,,,,,,
11/01/2016 14:00,-72,,,,,,,,,,,,,,,,,
11/01/2016 15:00,-46,,,,,,,,,,,,,,,,,
11/01/2016 16:00,-62,,,,,,,,,,,,,,,,,
11/01/2016 17:00,-61,,,,,,,,,,,,,,,,,
11/01/2016 18:00,-17,,,,,,,,,,,,,,,,,
11/01/2016 19:00,-17,,,,,,,,,,,,,,,,,
11/01/2016 20:00,3,,,,,,,,,,,,,,,,,
11/01/2016 21:00,0,,,,,,,,,,,,,,,,,
11/01/2016 22:00,1,,,,,,,,,,,,,,,,,
11/01/2016 23:00,-2,,,,,,,,,,,,,,,,,
11/02/2016 0:00,-26,,,,,,,,,,,,,,,,,
11/02/2016 1:00,-43,,,,,,,,,,,,,,,,,
11/02/2016 2:00,-71,,,,,,,,,,,,,,,,,
11/02/2016 3:00,-61,,,,,,,,,,,,,,,,,
11/02/2016 4:00,-73,,,,,,,,,,,,,,,,,
11/02/2016 5:00,-62,,,,,,,,,,,,,,,,,
11/02/2016 6:00,-23,,,,,,,,,,,,,,,,,
11/02/2016 7:00,-7,,,,,,,,,,,,,,,,,
11/02/2016 8:00,-1,,,,,,,,,,,,,,,,,
11/02/2016 9:00,1,,,,,,,,,,,,,,,,,
11/02/2016 10:00,-2,,,,,,,,,,,,,,,,,
11/02/2016 11:00,0,,,,,,,,,,,,,,,,,
11/02/2016 12:00,3,,,,,,,,,,,,,,,,,
11/02/2016 13:00,-1,,,,,,,,,,,,,,,,,
11/02/2016 14:00,1,,,,,,,,,,,,,,,,,
11/02/2016 15:00,-33,,,,,,,,,,,,,,,,,
11/02/2016 16:00,-39,,,,,,,,,,,,,,,,,
11/02/2016 17:00,-46,,,,,,,,,,,,,,,,,
11/02/2016 18:00,-41,,,,,,,,,,,,,,,,,
11/02/2016 19:00,-5,,,,,,,,,,,,,,,,,
11/02/2016 20:00,-36,,,,,,,,,,,,,,,,,
11/02/2016 21:00,-36,,,,,,,,,,,,,,,,,
11/02/2016 22:00,-30,,,,,,,,,,,,,,,,,
11/02/2016 23:00,12,,,,,,,,,,,,,,,,,
11/03/2016 0:00,-40,,,,,,,,,,,,,,,,,
11/03/2016 1:00,-42,,,,,,,,,,,,,,,,,
11/03/2016 2:00,-26,,,,,,,,,,,,,,,,,
11/03/2016 3:00,-13,,,,,,,,,,,,,,,,,
11/03/2016 4:00,-4,,,,,,,,,,,,,,,,,
11/03/2016 5:00,4,,,,,,,,,,,,,,,,,
11/03/2016 6:00,-3,,,,,,,,,,,,,,,,,
11/03/2016 7:00,-20,,,,,,,,,,,,,,,,,
11/03/2016 8:00,11,,,,,,,,,,,,,,,,,
11/03/2016 9:00,-9,,,,,,,,,,,,,,,,,
11/03/2016 10:00,-104,,,,,,,,,,,,,,,,,
11/03/2016 11:00,-96,,,,,,,,,,,,,,,,,
11/03/2016 12:00,-84,,,,,,,,,,,,,,,,,
11/03/2016 13:00,-97,,,,,,,,,,,,,,,,,
11/03/2016 14:00,-103,,,,,,,,,,,,,,,,,
11/03/2016 15:00,-133,,,,,,,,,,,,,,,,,
11/03/2016 16:00,-95,,,,,,,,,,,,,,,,,
11/03/2016 17:00,-163,,,,,,,,,,,,,,,,,
11/03/2016 18:00,-231,,,,,,,,,,,,,,,,,
11/03/2016 19:00,-232,,,,,,,,,,,,,,,,,
11/03/2016 20:00,-220,,,,,,,,,,,,,,,,,
11/03/2016 21:00,-176,,,,,,,,,,,,,,,,,
11/03/2016 22:00,-113,,,,,,,,,,,,,,,,,
11/03/2016 23:00,-31,,,,,,,,,,,,,,,,,
11/04/2016 0:00,-50,,,,,,,,,,,,,,,,,
11/04/2016 1:00,-103,,,,,,,,,,,,,,,,,
11/04/2016 2:00,-122,,,,,,,,,,,,,,,,,
11/04/2016 3:00,-151,,,,,,,,,,,,,,,,,
11/04/2016 4:00,-155,,,,,,,,,,,,,,,,,
11/04/2016 5:00,-160,,,,,,,,,,,,,,,,,
11/04/2016 6:00,-126,,,,,,,,,,,,,,,,,
11/04/2016 7:00,-149,,,,,,,,,,,,,,,,,
11/04/2016 8:00,-154,,,,,,,,,,,,,,,,,
11/04/2016 9:00,-184,,,,,,,,,,,,,,,,,
11/04/2016 10:00,-184,,,,,,,,,,,,,,,,,
11/04/2016 11:00,-196,,,,,,,,,,,,,,,,,
11/04/2016 12:00,-135,,,,,,,,,,,,,,,,,
11/04/2016 13:00,-137,,,,,,,,,,,,,,,,,
11/04/2016 14:00,-153,,,,,,,,,,,,,,,,,
11/04/2016 15:00,-164,,,,,,,,,,,,,,,,,
11/04/2016 16:00,-164,,,,,,,,,,,,,,,,,
11/04/2016 17:00,-161,,,,,,,,,,,,,,,,,
11/04/2016 18:00,-146,,,,,,,,,,,,,,,,,
11/04/2016 19:00,-176,,,,,,,,,,,,,,,,,
11/04/2016 20:00,-178,,,,,,,,,,,,,,,,,
11/04/2016 21:00,-175,,,,,,,,,,,,,,,,,
11/04/2016 22:00,-172,,,,,,,,,,,,,,,,,
11/04/2016 23:00,-149,,,,,,,,,,,,,,,,,
11/05/2016 0:00,-131,,,,,,,,,,,,,,,,,
11/05/2016 1:00,-69,,,,,,,,,,,,,,,,,
11/05/2016 2:00,-49,,,,,,,,,,,,,,,,,
11/05/2016 3:00,-49,,,,,,,,,,,,,,,,,
11/05/2016 4:00,-54,,,,,,,,,,,,,,,,,
11/05/2016 5:00,-69,,,,,,,,,,,,,,,,,
11/05/2016 6:00,-81,,,,,,,,,,,,,,,,,
11/05/2016 7:00,-62,,,,,,,,,,,,,,,,,
11/05/2016 8:00,-65,,,,,,,,,,,,,,,,,
11/05/2016 9:00,-63,,,,,,,,,,,,,,,,,
11/05/2016 10:00,-60,,,,,,,,,,,,,,,,,
11/05/2016 11:00,-86,,,,,,,,,,,,,,,,,
11/05/2016 12:00,-123,,,,,,,,,,,,,,,,,
11/05/2016 13:00,-90,,,,,,,,,,,,,,,,,
11/05/2016 14:00,-83,,,,,,,,,,,,,,,,,
11/05/2016 15:00,-85,,,,,,,,,,,,,,,,,
11/05/2016 16:00,-154,,,,,,,,,,,,,,,,,
11/05/2016 17:00,-164,,,,,,,,,,,,,,,,,
11/05/2016 18:00,-186,,,,,,,,,,,,,,,,,
11/05/2016 19:00,-190,,,,,,,,,,,,,,,,,
11/05/2016 20:00,-188,,,,,,,,,,,,,,,,,
11/05/2016 21:00,-184,,,,,,,,,,,,,,,,,
11/05/2016 22:00,-112,,,,,,,,,,,,,,,,,
11/05/2016 23:00,-97,,,,,,,,,,,,,,,,,
11/06/2016 0:00,-96,,,,,,,,,,,,,,,,,
11/06/2016 1:00,-95,,,,,,,,,,,,,,,,,
11/06/2016 2:00,-107,,,,,,,,,,,,,,,,,
11/06/2016 3:00,-107,,,,,,,,,,,,,,,,,
11/06/2016 4:00,-131,,,,,,,,,,,,,,,,,
11/06/2016 5:00,-128,,,,,,,,,,,,,,,,,
11/06/2016 6:00,-130,,,,,,,,,,,,,,,,,
11/06/2016 7:00,-125,,,,,,,,,,,,,,,,,
11/06/2016 8:00,-89,,,,,,,,,,,,,,,,,
11/06/2016 9:00,-109,,,,,,,,,,,,,,,,,
11/06/2016 10:00,-139,,,,,,,,,,,,,,,,,
11/06/2016 11:00,-136,,,,,,,,,,,,,,,,,
11/06/2016 12:00,-133,,,,,,,,,,,,,,,,,
11/06/2016 13:00,-90,,,,,,,,,,,,,,,,,
11/06/2016 14:00,-148,,,,,,,,,,,,,,,,,
11/06/2016 15:00,-176,,,,,,,,,,,,,,,,,
11/06/2016 16:00,-188,,,,,,,,,,,,,,,,,
11/06/2016 17:00,-184,,,,,,,,,,,,,,,,,
11/06/2016 18:00,-175,,,,,,,,,,,,,,,,,
11/06/2016 19:00,-160,,,,,,,,,,,,,,,,,
11/06/2016 20:00,-153,,,,,,,,,,,,,,,,,
11/06/2016 21:00,-161,,,,,,,,,,,,,,,,,
11/06/2016 22:00,-145,,,,,,,,,,,,,,,,,
11/06/2016 23:00,-94,,,,,,,,,,,,,,,,,
11/07/2016 0:00,-99,,,,,,,,,,,,,,,,,
11/07/2016 1:00,-93,,,,,,,,,,,,,,,,,
11/07/2016 2:00,-94,,,,,,,,,,,,,,,,,
11/07/2016 3:00,-61,,,,,,,,,,,,,,,,,
11/07/2016 4:00,-39,,,,,,,,,,,,,,,,,
11/07/2016 5:00,-41,,,,,,,,,,,,,,,,,
11/07/2016 6:00,-36,,,,,,,,,,,,,,,,,
11/07/2016 7:00,-30,,,,,,,,,,,,,,,,,
11/07/2016 8:00,-54,,,,,,,,,,,,,,,,,
11/07/2016 9:00,-66,,,,,,,,,,,,,,,,,
11/07/2016 10:00,-147,,,,,,,,,,,,,,,,,
11/07/2016 11:00,-164,,,,,,,,,,,,,,,,,
11/07/2016 12:00,-130,,,,,,,,,,,,,,,,,
11/07/2016 13:00,-129,,,,,,,,,,,,,,,,,
11/07/2016 14:00,-102,,,,,,,,,,,,,,,,,
11/07/2016 15:00,-95,,,,,,,,,,,,,,,,,
11/07/2016 16:00,-123,,,,,,,,,,,,,,,,,
11/07/2016 17:00,-167,,,,,,,,,,,,,,,,,
11/07/2016 18:00,-174,,,,,,,,,,,,,,,,,
11/07/2016 19:00,-165,,,,,,,,,,,,,,,,,
11/07/2016 20:00,-156,,,,,,,,,,,,,,,,,
11/07/2016 21:00,-175,,,,,,,,,,,,,,,,,
11/07/2016 22:00,-174,,,,,,,,,,,,,,,,,
11/07/2016 23:00,-159,,,,,,,,,,,,,,,,,
11/08/2016 0:00,-126,,,,,,,,,,,,,,,,,
11/08/2016 1:00,-152,,,,,,,,,,,,,,,,,
11/08/2016 2:00,-150,,,,,,,,,,,,,,,,,
11/08/2016 3:00,-152,,,,,,,,,,,,,,,,,
11/08/2016 4:00,-161,,,,,,,,,,,,,,,,,
11/08/2016 5:00,-172,,,,,,,,,,,,,,,,,
11/08/2016 6:00,-177,,,,,,,,,,,,,,,,,
11/08/2016 7:00,-170,,,,,,,,,,,,,,,,,
11/08/2016 8:00,-179,,,,,,,,,,,,,,,,,
11/08/2016 9:00,-175,,,,,,,,,,,,,,,,,
11/08/2016 10:00,-164,,,,,,,,,,,,,,,,,
11/08/2016 11:00,-181,,,,,,,,,,,,,,,,,
11/08/2016 12:00,-163,,,,,,,,,,,,,,,,,
11/08/2016 13:00,-163,,,,,,,,,,,,,,,,,
11/08/2016 14:00,-179,,,,,,,,,,,,,,,,,
11/08/2016 15:00,-180,,,,,,,,,,,,,,,,,
11/08/2016 16:00,-181,,,,,,,,,,,,,,,,,
11/08/2016 17:00,-183,,,,,,,,,,,,,,,,,
11/08/2016 18:00,-161,,,,,,,,,,,,,,,,,
11/08/2016 19:00,-146,,,,,,,,,,,,,,,,,
11/08/2016 20:00,-138,,,,,,,,,,,,,,,,,
11/08/2016 21:00,-139,,,,,,,,,,,,,,,,,
11/08/2016 22:00,-137,,,,,,,,,,,,,,,,,
11/08/2016 23:00,-140,,,,,,,,,,,,,,,,,
11/09/2016 0:00,-132,,,,,,,,,,,,,,,,,
11/09/2016 1:00,-105,,,,,,,,,,,,,,,,,
11/09/2016 2:00,-109,,,,,,,,,,,,,,,,,
11/09/2016 3:00,-80,,,,,,,,,,,,,,,,,
11/09/2016 4:00,-71,,,,,,,,,,,,,,,,,
11/09/2016 5:00,-95,,,,,,,,,,,,,,,,,
11/09/2016 6:00,-90,,,,,,,,,,,,,,,,,
11/09/2016 7:00,-86,,,,,,,,,,,,,,,,,
11/09/2016 8:00,-117,,,,,,,,,,,,,,,,,
11/09/2016 9:00,-125,,,,,,,,,,,,,,,,,
11/09/2016 10:00,-163,,,,,,,,,,,,,,,,,
11/09/2016 11:00,-151,,,,,,,,,,,,,,,,,
11/09/2016 12:00,-162,,,,,,,,,,,,,,,,,
11/09/2016 13:00,-166,,,,,,,,,,,,,,,,,
11/09/2016 14:00,-187,,,,,,,,,,,,,,,,,
11/09/2016 15:00,-175,,,,,,,,,,,,,,,,,
11/09/2016 16:00,-173,,,,,,,,,,,,,,,,,
11/09/2016 17:00,-181,,,,,,,,,,,,,,,,,
11/09/2016 18:00,-177,,,,,,,,,,,,,,,,,
11/09/2016 19:00,-155,,,,,,,,,,,,,,,,,
11/09/2016 20:00,-191,,,,,,,,,,,,,,,,,
11/09/2016 21:00,-177,,,,,,,,,,,,,,,,,
11/09/2016 22:00,-186,,,,,,,,,,,,,,,,,
11/09/2016 23:00,-171,,,,,,,,,,,,,,,,,
11/10/2016 0:00,-106,,,,,,,,,,,,,,,,,
11/10/2016 1:00,-72,,,,,,,,,,,,,,,,,
11/10/2016 2:00,-25,,,,,,,,,,,,,,,,,
11/10/2016 3:00,2,,,,,,,,,,,,,,,,,
11/10/2016 4:00,10,,,,,,,,,,,,,,,,,
11/10/2016 5:00,10,,,,,,,,,,,,,,,,,
11/10/2016 6:00,-36,,,,,,,,,,,,,,,,,
11/10/2016 7:00,-32,,,,,,,,,,,,,,,,,
11/10/2016 8:00,-37,,,,,,,,,,,,,,,,,
11/10/2016 9:00,-75,,,,,,,,,,,,,,,,,
11/10/2016 10:00,-76,,,,,,,,,,,,,,,,,
11/10/2016 11:00,-49,,,,,,,,,,,,,,,,,
11/10/2016 12:00,-48,,,,,,,,,,,,,,,,,
11/10/2016 13:00,-50,,,,,,,,,,,,,,,,,
11/10/2016 14:00,-86,,,,,,,,,,,,,,,,,
11/10/2016 15:00,-148,,,,,,,,,,,,,,,,,
11/10/2016 16:00,-172,,,,,,,,,,,,,,,,,
11/10/2016 17:00,-150,,,,,,,,,,,,,,,,,
11/10/2016 18:00,-140,,,,,,,,,,,,,,,,,
11/10/2016 19:00,-93,,,,,,,,,,,,,,,,,
11/10/2016 20:00,-81,,,,,,,,,,,,,,,,,
11/10/2016 21:00,-49,,,,,,,,,,,,,,,,,
11/10/2016 22:00,-47,,,,,,,,,,,,,,,,,
11/10/2016 23:00,-74,,,,,,,,,,,,,,,,,
11/11/2016 0:00,-82,,,,,,,,,,,,,,,,,
11/11/2016 1:00,-25,,,,,,,,,,,,,,,,,
11/11/2016 2:00,43,,,,,,,,,,,,,,,,,
11/11/2016 3:00,78,,,,,,,,,,,,,,,,,
11/11/2016 4:00,82,,,,,,,,,,,,,,,,,
11/11/2016 5:00,76,,,,,,,,,,,,,,,,,
11/11/2016 6:00,73,,,,,,,,,,,,,,,,,
11/11/2016 7:00,2,,,,,,,,,,,,,,,,,
11/11/2016 8:00,-2,,,,,,,,,,,,,,,,,
11/11/2016 9:00,-45,,,,,,,,,,,,,,,,,
11/11/2016 10:00,-49,,,,,,,,,,,,,,,,,
11/11/2016 11:00,-25,,,,,,,,,,,,,,,,,
11/11/2016 12:00,-35,,,,,,,,,,,,,,,,,
11/11/2016 13:00,-47,,,,,,,,,,,,,,,,,
11/11/2016 14:00,-59,,,,,,,,,,,,,,,,,
11/11/2016 15:00,-46,,,,,,,,,,,,,,,,,
11/11/2016 16:00,-38,,,,,,,,,,,,,,,,,
11/11/2016 17:00,-53,,,,,,,,,,,,,,,,,
11/11/2016 18:00,-59,,,,,,,,,,,,,,,,,
11/11/2016 19:00,-50,,,,,,,,,,,,,,,,,
11/11/2016 20:00,-42,,,,,,,,,,,,,,,,,
11/11/2016 21:00,-45,,,,,,,,,,,,,,,,,
11/11/2016 22:00,-21,,,,,,,,,,,,,,,,,
11/11/2016 23:00,-7,,,,,,,,,,,,,,,,,
11/12/2016 0:00,-10,,,,,,,,,,,,,,,,,
11/12/2016 1:00,2,,,,,,,,,,,,,,,,,
11/12/2016 2:00,4,,,,,,,,,,,,,,,,,
11/12/2016 3:00,7,,,,,,,,,,,,,,,,,
11/12/2016 4:00,56,,,,,,,,,,,,,,,,,
11/12/2016 5:00,8,,,,,,,,,,,,,,,,,
11/12/2016 6:00,-1,,,,,,,,,,,,,,,,,
11/12/2016 7:00,-5,,,,,,,,,,,,,,,,,
11/12/2016 8:00,-20,,,,,,,,,,,,,,,,,
11/12/2016 9:00,-50,,,,,,,,,,,,,,,,,
11/12/2016 10:00,-48,,,,,,,,,,,,,,,,,
11/12/2016 11:00,-48,,,,,,,,,,,,,,,,,
11/12/2016 12:00,-46,,,,,,,,,,,,,,,,,
11/12/2016 13:00,-60,,,,,,,,,,,,,,,,,
11/12/2016 14:00,-125,,,,,,,,,,,,,,,,,
11/12/2016 15:00,-131,,,,,,,,,,,,,,,,,
11/12/2016 16:00,-128,,,,,,,,,,,,,,,,,
11/12/2016 17:00,-140,,,,,,,,,,,,,,,,,
11/12/2016 18:00,-141,,,,,,,,,,,,,,,,,
11/12/2016 19:00,-134,,,,,,,,,,,,,,,,,
11/12/2016 20:00,-122,,,,,,,,,,,,,,,,,
11/12/2016 21:00,-119,,,,,,,,,,,,,,,,,
11/12/2016 22:00,-127,,,,,,,,,,,,,,,,,
11/12/2016 23:00,-61,,,,,,,,,,,,,,,,,
11/13/2016 0:00,-41,,,,,,,,,,,,,,,,,
11/13/2016 1:00,27,,,,,,,,,,,,,,,,,
11/13/2016 2:00,45,,,,,,,,,,,,,,,,,
11/13/2016 3:00,48,,,,,,,,,,,,,,,,,
11/13/2016 4:00,43,,,,,,,,,,,,,,,,,
11/13/2016 5:00,-1,,,,,,,,,,,,,,,,,
11/13/2016 6:00,-11,,,,,,,,,,,,,,,,,
11/13/2016 7:00,-3,,,,,,,,,,,,,,,,,
11/13/2016 8:00,-9,,,,,,,,,,,,,,,,,
11/13/2016 9:00,-51,,,,,,,,,,,,,,,,,
11/13/2016 10:00,-83,,,,,,,,,,,,,,,,,
11/13/2016 11:00,-129,,,,,,,,,,,,,,,,,
11/13/2016 12:00,-150,,,,,,,,,,,,,,,,,
11/13/2016 13:00,-151,,,,,,,,,,,,,,,,,
11/13/2016 14:00,-148,,,,,,,,,,,,,,,,,
11/13/2016 15:00,-156,,,,,,,,,,,,,,,,,
11/13/2016 16:00,-154,,,,,,,,,,,,,,,,,
11/13/2016 17:00,-153,,,,,,,,,,,,,,,,,
11/13/2016 18:00,-136,,,,,,,,,,,,,,,,,
11/13/2016 19:00,-148,,,,,,,,,,,,,,,,,
11/13/2016 20:00,-70,,,,,,,,,,,,,,,,,
11/13/2016 21:00,-75,,,,,,,,,,,,,,,,,
11/13/2016 22:00,-77,,,,,,,,,,,,,,,,,
11/13/2016 23:00,-74,,,,,,,,,,,,,,,,,
11/14/2016 0:00,-142,,,,,,,,,,,,,,,,,
11/14/2016 1:00,-125,,,,,,,,,,,,,,,,,
11/14/2016 2:00,-96,,,,,,,,,,,,,,,,,
11/14/2016 3:00,-95,,,,,,,,,,,,,,,,,
11/14/2016 4:00,-88,,,,,,,,,,,,,,,,,
11/14/2016 5:00,-75,,,,,,,,,,,,,,,,,
11/14/2016 6:00,-71,,,,,,,,,,,,,,,,,
11/14/2016 7:00,-86,,,,,,,,,,,,,,,,,
11/14/2016 8:00,-18,,,,,,,,,,,,,,,,,
11/14/2016 9:00,-58,,,,,,,,,,,,,,,,,
11/14/2016 10:00,-71,,,,,,,,,,,,,,,,,
11/14/2016 11:00,-110,,,,,,,,,,,,,,,,,
11/14/2016 12:00,-108,,,,,,,,,,,,,,,,,
11/14/2016 13:00,-114,,,,,,,,,,,,,,,,,
11/14/2016 14:00,-98,,,,,,,,,,,,,,,,,
11/14/2016 15:00,-99,,,,,,,,,,,,,,,,,
11/14/2016 16:00,-104,,,,,,,,,,,,,,,,,
11/14/2016 17:00,-98,,,,,,,,,,,,,,,,,
11/14/2016 18:00,-100,,,,,,,,,,,,,,,,,
11/14/2016 19:00,-167,,,,,,,,,,,,,,,,,
11/14/2016 20:00,-156,,,,,,,,,,,,,,,,,
11/14/2016 21:00,-152,,,,,,,,,,,,,,,,,
11/14/2016 22:00,-148,,,,,,,,,,,,,,,,,
11/14/2016 23:00,-147,,,,,,,,,,,,,,,,,
11/15/2016 0:00,-141,,,,,,,,,,,,,,,,,
11/15/2016 1:00,-98,,,,,,,,,,,,,,,,,
11/15/2016 2:00,-108,,,,,,,,,,,,,,,,,
11/15/2016 3:00,-98,,,,,,,,,,,,,,,,,
11/15/2016 4:00,-96,,,,,,,,,,,,,,,,,
11/15/2016 5:00,-95,,,,,,,,,,,,,,,,,
11/15/2016 6:00,-107,,,,,,,,,,,,,,,,,
11/15/2016 7:00,-75,,,,,,,,,,,,,,,,,
11/15/2016 8:00,-24,,,,,,,,,,,,,,,,,
11/15/2016 9:00,-55,,,,,,,,,,,,,,,,,
11/15/2016 10:00,-112,,,,,,,,,,,,,,,,,
11/15/2016 11:00,-133,,,,,,,,,,,,,,,,,
11/15/2016 12:00,-134,,,,,,,,,,,,,,,,,
11/15/2016 13:00,-134,,,,,,,,,,,,,,,,,
11/15/2016 14:00,-97,,,,,,,,,,,,,,,,,
11/15/2016 15:00,-95,,,,,,,,,,,,,,,,,
11/15/2016 16:00,-113,,,,,,,,,,,,,,,,,
11/15/2016 17:00,-121,,,,,,,,,,,,,,,,,
11/15/2016 18:00,-94,,,,,,,,,,,,,,,,,
11/15/2016 19:00,-100,,,,,,,,,,,,,,,,,
11/15/2016 20:00,-98,,,,,,,,,,,,,,,,,
11/15/2016 21:00,-99,,,,,,,,,,,,,,,,,
11/15/2016 22:00,-97,,,,,,,,,,,,,,,,,
11/15/2016 23:00,-98,,,,,,,,,,,,,,,,,
11/16/2016 0:00,-171,,,,,,,,,,,,,,,,,
11/16/2016 1:00,-123,,,,,,,,,,,,,,,,,
11/16/2016 2:00,-105,,,,,,,,,,,,,,,,,
11/16/2016 3:00,-28,,,,,,,,,,,,,,,,,
11/16/2016 4:00,3,,,,,,,,,,,,,,,,,
11/16/2016 5:00,8,,,,,,,,,,,,,,,,,
11/16/2016 6:00,-2,,,,,,,,,,,,,,,,,
11/16/2016 7:00,-13,,,,,,,,,,,,,,,,,
11/16/2016 8:00,-51,,,,,,,,,,,,,,,,,
11/16/2016 9:00,-74,,,,,,,,,,,,,,,,,
11/16/2016 10:00,-150,,,,,,,,,,,,,,,,,
11/16/2016 11:00,-150,,,,,,,,,,,,,,,,,
11/16/2016 12:00,-140,,,,,,,,,,,,,,,,,
11/16/2016 13:00,-127,,,,,,,,,,,,,,,,,
11/16/2016 14:00,-132,,,,,,,,,,,,,,,,,
11/16/2016 15:00,-115,,,,,,,,,,,,,,,,,
11/16/2016 16:00,-119,,,,,,,,,,,,,,,,,
11/16/2016 17:00,-123,,,,,,,,,,,,,,,,,
11/16/2016 18:00,-131,,,,,,,,,,,,,,,,,
11/16/2016 19:00,-48,,,,,,,,,,,,,,,,,
11/16/2016 20:00,-37,,,,,,,,,,,,,,,,,
11/16/2016 21:00,-47,,,,,,,,,,,,,,,,,
11/16/2016 22:00,-118,,,,,,,,,,,,,,,,,
11/16/2016 23:00,-177,,,,,,,,,,,,,,,,,
11/17/2016 0:00,-141,,,,,,,,,,,,,,,,,
11/17/2016 1:00,-88,,,,,,,,,,,,,,,,,
11/17/2016 2:00,-13,,,,,,,,,,,,,,,,,
11/17/2016 3:00,-9,,,,,,,,,,,,,,,,,
11/17/2016 4:00,-6,,,,,,,,,,,,,,,,,
11/17/2016 5:00,-28,,,,,,,,,,,,,,,,,
11/17/2016 6:00,-1,,,,,,,,,,,,,,,,,
11/17/2016 7:00,-97,,,,,,,,,,,,,,,,,
11/17/2016 8:00,-48,,,,,,,,,,,,,,,,,
11/17/2016 9:00,-115,,,,,,,,,,,,,,,,,
11/17/2016 10:00,-134,,,,,,,,,,,,,,,,,
11/17/2016 11:00,-143,,,,,,,,,,,,,,,,,
11/17/2016 12:00,-150,,,,,,,,,,,,,,,,,
11/17/2016 13:00,-148,,,,,,,,,,,,,,,,,
11/17/2016 14:00,-170,,,,,,,,,,,,,,,,,
11/17/2016 15:00,-126,,,,,,,,,,,,,,,,,
11/17/2016 16:00,-123,,,,,,,,,,,,,,,,,
11/17/2016 17:00,-148,,,,,,,,,,,,,,,,,
11/17/2016 18:00,-158,,,,,,,,,,,,,,,,,
11/17/2016 19:00,-148,,,,,,,,,,,,,,,,,
11/17/2016 20:00,-151,,,,,,,,,,,,,,,,,
11/17/2016 21:00,-152,,,,,,,,,,,,,,,,,
11/17/2016 22:00,-121,,,,,,,,,,,,,,,,,
11/17/2016 23:00,-141,,,,,,,,,,,,,,,,,
11/18/2016 0:00,-98,,,,,,,,,,,,,,,,,
11/18/2016 1:00,-59,,,,,,,,,,,,,,,,,
11/18/2016 2:00,-53,,,,,,,,,,,,,,,,,
11/18/2016 3:00,-9,,,,,,,,,,,,,,,,,
11/18/2016 4:00,53,,,,,,,,,,,,,,,,,
11/18/2016 5:00,0,,,,,,,,,,,,,,,,,
11/18/2016 6:00,0,,,,,,,,,,,,,,,,,
11/18/2016 7:00,-4,,,,,,,,,,,,,,,,,
11/18/2016 8:00,-15,,,,,,,,,,,,,,,,,
11/18/2016 9:00,-83,,,,,,,,,,,,,,,,,
11/18/2016 10:00,-50,,,,,,,,,,,,,,,,,
11/18/2016 11:00,-137,,,,,,,,,,,,,,,,,
11/18/2016 12:00,-143,,,,,,,,,,,,,,,,,
11/18/2016 13:00,-154,,,,,,,,,,,,,,,,,
11/18/2016 14:00,-145,,,,,,,,,,,,,,,,,
11/18/2016 15:00,-148,,,,,,,,,,,,,,,,,
11/18/2016 16:00,-146,,,,,,,,,,,,,,,,,
11/18/2016 17:00,-152,,,,,,,,,,,,,,,,,
11/18/2016 18:00,-125,,,,,,,,,,,,,,,,,
11/18/2016 19:00,-130,,,,,,,,,,,,,,,,,
11/18/2016 20:00,-129,,,,,,,,,,,,,,,,,
11/18/2016 21:00,-138,,,,,,,,,,,,,,,,,
11/18/2016 22:00,-146,,,,,,,,,,,,,,,,,
11/18/2016 23:00,-124,,,,,,,,,,,,,,,,,
11/19/2016 0:00,-121,,,,,,,,,,,,,,,,,
11/19/2016 1:00,-58,,,,,,,,,,,,,,,,,
11/19/2016 2:00,-2,,,,,,,,,,,,,,,,,
11/19/2016 3:00,0,,,,,,,,,,,,,,,,,
11/19/2016 4:00,1,,,,,,,,,,,,,,,,,
11/19/2016 5:00,2,,,,,,,,,,,,,,,,,
11/19/2016 6:00,-1,,,,,,,,,,,,,,,,,
11/19/2016 7:00,1,,,,,,,,,,,,,,,,,
11/19/2016 8:00,1,,,,,,,,,,,,,,,,,
11/19/2016 9:00,-52,,,,,,,,,,,,,,,,,
11/19/2016 10:00,-87,,,,,,,,,,,,,,,,,
11/19/2016 11:00,-134,,,,,,,,,,,,,,,,,
11/19/2016 12:00,-160,,,,,,,,,,,,,,,,,
11/19/2016 13:00,-168,,,,,,,,,,,,,,,,,
11/19/2016 14:00,-161,,,,,,,,,,,,,,,,,
11/19/2016 15:00,-162,,,,,,,,,,,,,,,,,
11/19/2016 16:00,-178,,,,,,,,,,,,,,,,,
11/19/2016 17:00,-185,,,,,,,,,,,,,,,,,
11/19/2016 18:00,-176,,,,,,,,,,,,,,,,,
11/19/2016 19:00,-181,,,,,,,,,,,,,,,,,
11/19/2016 20:00,-173,,,,,,,,,,,,,,,,,
11/19/2016 21:00,-172,,,,,,,,,,,,,,,,,
11/19/2016 22:00,-180,,,,,,,,,,,,,,,,,
11/19/2016 23:00,-155,,,,,,,,,,,,,,,,,
11/20/2016 0:00,-104,,,,,,,,,,,,,,,,,
11/20/2016 1:00,-94,,,,,,,,,,,,,,,,,
11/20/2016 2:00,-93,,,,,,,,,,,,,,,,,
11/20/2016 3:00,-54,,,,,,,,,,,,,,,,,
11/20/2016 4:00,-2,,,,,,,,,,,,,,,,,
11/20/2016 5:00,-1,,,,,,,,,,,,,,,,,
11/20/2016 6:00,8,,,,,,,,,,,,,,,,,
11/20/2016 7:00,7,,,,,,,,,,,,,,,,,
11/20/2016 8:00,0,,,,,,,,,,,,,,,,,
11/20/2016 9:00,-53,,,,,,,,,,,,,,,,,
11/20/2016 10:00,-72,,,,,,,,,,,,,,,,,
11/20/2016 11:00,-154,,,,,,,,,,,,,,,,,
11/20/2016 12:00,-155,,,,,,,,,,,,,,,,,
11/20/2016 13:00,-155,,,,,,,,,,,,,,,,,
11/20/2016 14:00,-140,,,,,,,,,,,,,,,,,
11/20/2016 15:00,-146,,,,,,,,,,,,,,,,,
11/20/2016 16:00,-127,,,,,,,,,,,,,,,,,
11/20/2016 17:00,-136,,,,,,,,,,,,,,,,,
11/20/2016 18:00,-127,,,,,,,,,,,,,,,,,
11/20/2016 19:00,-121,,,,,,,,,,,,,,,,,
11/20/2016 20:00,-56,,,,,,,,,,,,,,,,,
11/20/2016 21:00,-67,,,,,,,,,,,,,,,,,
11/20/2016 22:00,-70,,,,,,,,,,,,,,,,,
11/20/2016 23:00,-116,,,,,,,,,,,,,,,,,
11/21/2016 0:00,-92,,,,,,,,,,,,,,,,,
11/21/2016 1:00,-54,,,,,,,,,,,,,,,,,
11/21/2016 2:00,-7,,,,,,,,,,,,,,,,,
11/21/2016 3:00,-2,,,,,,,,,,,,,,,,,
11/21/2016 4:00,-5,,,,,,,,,,,,,,,,,
11/21/2016 5:00,2,,,,,,,,,,,,,,,,,
11/21/2016 6:00,-1,,,,,,,,,,,,,,,,,
11/21/2016 7:00,-2,,,,,,,,,,,,,,,,,
11/21/2016 8:00,-4,,,,,,,,,,,,,,,,,
11/21/2016 9:00,-41,,,,,,,,,,,,,,,,,
11/21/2016 10:00,-40,,,,,,,,,,,,,,,,,
11/21/2016 11:00,-66,,,,,,,,,,,,,,,,,
11/21/2016 12:00,-71,,,,,,,,,,,,,,,,,
11/21/2016 13:00,-81,,,,,,,,,,,,,,,,,
11/21/2016 14:00,-55,,,,,,,,,,,,,,,,,
11/21/2016 15:00,-65,,,,,,,,,,,,,,,,,
11/21/2016 16:00,-58,,,,,,,,,,,,,,,,,
11/21/2016 17:00,-9,,,,,,,,,,,,,,,,,
11/21/2016 18:00,-77,,,,,,,,,,,,,,,,,
11/21/2016 19:00,-40,,,,,,,,,,,,,,,,,
11/21/2016 20:00,-87,,,,,,,,,,,,,,,,,
11/21/2016 21:00,-49,,,,,,,,,,,,,,,,,
11/21/2016 22:00,-41,,,,,,,,,,,,,,,,,
11/21/2016 23:00,-50,,,,,,,,,,,,,,,,,
11/22/2016 0:00,-37,,,,,,,,,,,,,,,,,
11/22/2016 1:00,-47,,,,,,,,,,,,,,,,,
11/22/2016 2:00,-40,,,,,,,,,,,,,,,,,
11/22/2016 3:00,-38,,,,,,,,,,,,,,,,,
11/22/2016 4:00,-77,,,,,,,,,,,,,,,,,
11/22/2016 5:00,-109,,,,,,,,,,,,,,,,,
11/22/2016 6:00,-78,,,,,,,,,,,,,,,,,
11/22/2016 7:00,-15,,,,,,,,,,,,,,,,,
11/22/2016 8:00,-9,,,,,,,,,,,,,,,,,
11/22/2016 9:00,-98,,,,,,,,,,,,,,,,,
11/22/2016 10:00,-126,,,,,,,,,,,,,,,,,
11/22/2016 11:00,-130,,,,,,,,,,,,,,,,,
11/22/2016 12:00,-76,,,,,,,,,,,,,,,,,
11/22/2016 13:00,-81,,,,,,,,,,,,,,,,,
11/22/2016 14:00,-83,,,,,,,,,,,,,,,,,
11/22/2016 15:00,-87,,,,,,,,,,,,,,,,,
11/22/2016 16:00,-53,,,,,,,,,,,,,,,,,
11/22/2016 17:00,-53,,,,,,,,,,,,,,,,,
11/22/2016 18:00,-93,,,,,,,,,,,,,,,,,
11/22/2016 19:00,-94,,,,,,,,,,,,,,,,,
11/22/2016 20:00,-91,,,,,,,,,,,,,,,,,
11/22/2016 21:00,-52,,,,,,,,,,,,,,,,,
11/22/2016 22:00,-105,,,,,,,,,,,,,,,,,
11/22/2016 23:00,-130,,,,,,,,,,,,,,,,,
11/23/2016 0:00,-135,,,,,,,,,,,,,,,,,
11/23/2016 1:00,-110,,,,,,,,,,,,,,,,,
11/23/2016 2:00,-106,,,,,,,,,,,,,,,,,
11/23/2016 3:00,-95,,,,,,,,,,,,,,,,,
11/23/2016 4:00,-93,,,,,,,,,,,,,,,,,
11/23/2016 5:00,-145,,,,,,,,,,,,,,,,,
11/23/2016 6:00,-148,,,,,,,,,,,,,,,,,
11/23/2016 7:00,-104,,,,,,,,,,,,,,,,,
11/23/2016 8:00,-112,,,,,,,,,,,,,,,,,
11/23/2016 9:00,-184,,,,,,,,,,,,,,,,,
11/23/2016 10:00,-190,,,,,,,,,,,,,,,,,
11/23/2016 11:00,-193,,,,,,,,,,,,,,,,,
11/23/2016 12:00,-153,,,,,,,,,,,,,,,,,
11/23/2016 13:00,-146,,,,,,,,,,,,,,,,,
11/23/2016 14:00,-145,,,,,,,,,,,,,,,,,
11/23/2016 15:00,-140,,,,,,,,,,,,,,,,,
11/23/2016 16:00,-149,,,,,,,,,,,,,,,,,
11/23/2016 17:00,-160,,,,,,,,,,,,,,,,,
11/23/2016 18:00,-149,,,,,,,,,,,,,,,,,
11/23/2016 19:00,-142,,,,,,,,,,,,,,,,,
11/23/2016 20:00,-101,,,,,,,,,,,,,,,,,
11/23/2016 21:00,-91,,,,,,,,,,,,,,,,,
11/23/2016 22:00,-93,,,,,,,,,,,,,,,,,
11/23/2016 23:00,-102,,,,,,,,,,,,,,,,,
11/24/2016 0:00,-98,,,,,,,,,,,,,,,,,
11/24/2016 1:00,-103,,,,,,,,,,,,,,,,,
11/24/2016 2:00,-57,,,,,,,,,,,,,,,,,
11/24/2016 3:00,-74,,,,,,,,,,,,,,,,,
11/24/2016 4:00,-74,,,,,,,,,,,,,,,,,
11/24/2016 5:00,-88,,,,,,,,,,,,,,,,,
11/24/2016 6:00,-74,,,,,,,,,,,,,,,,,
11/24/2016 7:00,-3,,,,,,,,,,,,,,,,,
11/24/2016 8:00,-36,,,,,,,,,,,,,,,,,
11/24/2016 9:00,-134,,,,,,,,,,,,,,,,,
11/24/2016 10:00,-107,,,,,,,,,,,,,,,,,
11/24/2016 11:00,-91,,,,,,,,,,,,,,,,,
11/24/2016 12:00,-57,,,,,,,,,,,,,,,,,
11/24/2016 13:00,-77,,,,,,,,,,,,,,,,,
11/24/2016 14:00,-77,,,,,,,,,,,,,,,,,
11/24/2016 15:00,-67,,,,,,,,,,,,,,,,,
11/24/2016 16:00,-65,,,,,,,,,,,,,,,,,
11/24/2016 17:00,-39,,,,,,,,,,,,,,,,,
11/24/2016 18:00,-129,,,,,,,,,,,,,,,,,
11/24/2016 19:00,-156,,,,,,,,,,,,,,,,,
11/24/2016 20:00,-82,,,,,,,,,,,,,,,,,
11/24/2016 21:00,-40,,,,,,,,,,,,,,,,,
11/24/2016 22:00,-65,,,,,,,,,,,,,,,,,
11/24/2016 23:00,-65,,,,,,,,,,,,,,,,,
11/25/2016 0:00,-99,,,,,,,,,,,,,,,,,
11/25/2016 1:00,-93,,,,,,,,,,,,,,,,,
11/25/2016 2:00,-105,,,,,,,,,,,,,,,,,
11/25/2016 3:00,-63,,,,,,,,,,,,,,,,,
11/25/2016 4:00,-93,,,,,,,,,,,,,,,,,
11/25/2016 5:00,-95,,,,,,,,,,,,,,,,,
11/25/2016 6:00,-85,,,,,,,,,,,,,,,,,
11/25/2016 7:00,-148,,,,,,,,,,,,,,,,,
11/25/2016 8:00,-177,,,,,,,,,,,,,,,,,
11/25/2016 9:00,-150,,,,,,,,,,,,,,,,,
11/25/2016 10:00,-145,,,,,,,,,,,,,,,,,
11/25/2016 11:00,-146,,,,,,,,,,,,,,,,,
11/25/2016 12:00,-148,,,,,,,,,,,,,,,,,
11/25/2016 13:00,-147,,,,,,,,,,,,,,,,,
11/25/2016 14:00,-133,,,,,,,,,,,,,,,,,
11/25/2016 15:00,-134,,,,,,,,,,,,,,,,,
11/25/2016 16:00,-134,,,,,,,,,,,,,,,,,
11/25/2016 17:00,-136,,,,,,,,,,,,,,,,,
11/25/2016 18:00,-153,,,,,,,,,,,,,,,,,
11/25/2016 19:00,-146,,,,,,,,,,,,,,,,,
11/25/2016 20:00,-137,,,,,,,,,,,,,,,,,
11/25/2016 21:00,-128,,,,,,,,,,,,,,,,,
11/25/2016 22:00,-90,,,,,,,,,,,,,,,,,
11/25/2016 23:00,-91,,,,,,,,,,,,,,,,,
11/26/2016 0:00,-61,,,,,,,,,,,,,,,,,
11/26/2016 1:00,-4,,,,,,,,,,,,,,,,,
11/26/2016 2:00,-102,,,,,,,,,,,,,,,,,
11/26/2016 3:00,-130,,,,,,,,,,,,,,,,,
11/26/2016 4:00,-123,,,,,,,,,,,,,,,,,
11/26/2016 5:00,-128,,,,,,,,,,,,,,,,,
11/26/2016 6:00,-100,,,,,,,,,,,,,,,,,
11/26/2016 7:00,-82,,,,,,,,,,,,,,,,,
11/26/2016 8:00,-61,,,,,,,,,,,,,,,,,
11/26/2016 9:00,-134,,,,,,,,,,,,,,,,,
11/26/2016 10:00,-152,,,,,,,,,,,,,,,,,
11/26/2016 11:00,-150,,,,,,,,,,,,,,,,,
11/26/2016 12:00,-147,,,,,,,,,,,,,,,,,
11/26/2016 13:00,-120,,,,,,,,,,,,,,,,,
11/26/2016 14:00,-145,,,,,,,,,,,,,,,,,
11/26/2016 15:00,-156,,,,,,,,,,,,,,,,,
11/26/2016 16:00,-170,,,,,,,,,,,,,,,,,